When you browse on this site, cookies collect data to enhance your experience and personalize the content and advertising you see.
Visit our Privacy Policy to learn more. By continuing to use the site, you agree to this use of cookies and data.
  • In Portugal
  • List of Countries
  • For 7 days
  • Water Temperature
  • Satellite Maps
  • Weather Map
  • Weather Widgets
  • user-avatar
    Login

    Hourly Weather Natitingou

    Today, 22 July, Monday

    Time Temperature Precipitation Wind Pressure Humidity
    00:00 +24°C° 0 mm 2 mps 718 mmHg 94%
    01:00 +23°C° 0 mm 2 mps 717 mmHg 95%
    02:00 +23°C° 0 mm 2 mps 717 mmHg 95%
    03:00 +23°C° 0 mm 2 mps 717 mmHg 95%
    04:00 +23°C° 0 mm 2 mps 717 mmHg 95%
    05:00 +23°C° 0 mm 2 mps 718 mmHg 95%
    06:00 +23°C° 0 mm 2 mps 718 mmHg 96%
    07:00 +24°C° 0 mm 3 mps 718 mmHg 91%
    08:00 +25°C° 0 mm 4 mps 719 mmHg 85%
    09:00 +26°C° 0 mm 4 mps 719 mmHg 80%
    10:00 +27°C° 0 mm 4 mps 719 mmHg 77%
    11:00 +28°C° 0 mm 3 mps 719 mmHg 73%
    12:00 +29°C° 0 mm 3 mps 719 mmHg 69%
    13:00 +29°C° 0.4 mm 2 mps 718 mmHg 69%
    14:00 +29°C° 0.4 mm 2 mps 717 mmHg 69%
    15:00 +29°C° 0.4 mm 1 mps 716 mmHg 69%
    16:00 +28°C° 0.7 mm 2 mps 716 mmHg 75%
    17:00 +27°C° 0.7 mm 2 mps 716 mmHg 80%
    18:00 +26°C° 0.7 mm 2 mps 716 mmHg 86%
    19:00 +25°C° 1.2 mm 2 mps 716 mmHg 88%
    20:00 +25°C° 1.2 mm 2 mps 717 mmHg 91%
    21:00 +24°C° 1.2 mm 1 mps 717 mmHg 93%
    22:00 +24°C° 0.6 mm 1 mps 717 mmHg 93%
    23:00 +24°C° 0.6 mm 1 mps 717 mmHg 92%

    Tomorrow, 23 July, Tuesday

    Time Temperature Precipitation Wind Pressure Humidity
    00:00 +24°C° 0.6 mm 1 mps 718 mmHg 92%
    01:00 +24°C° 0.8 mm 1 mps 717 mmHg 93%
    02:00 +24°C° 0.8 mm 1 mps 717 mmHg 93%
    03:00 +23°C° 0.8 mm 1 mps 717 mmHg 94%
    04:00 +23°C° 0.8 mm 1 mps 717 mmHg 94%
    05:00 +23°C° 0.8 mm 2 mps 717 mmHg 95%
    06:00 +23°C° 0.8 mm 2 mps 717 mmHg 95%
    07:00 +23°C° 1.9 mm 2 mps 718 mmHg 94%
    08:00 +24°C° 1.9 mm 3 mps 718 mmHg 94%
    09:00 +24°C° 1.9 mm 3 mps 718 mmHg 93%
    10:00 +24°C° 7.9 mm 3 mps 718 mmHg 94%
    11:00 +22°C° 7.9 mm 3 mps 718 mmHg 96%
    12:00 +22°C° 7.9 mm 3 mps 719 mmHg 97%
    13:00 +22°C° 3 mm 3 mps 718 mmHg 97%
    14:00 +22°C° 3 mm 3 mps 717 mmHg 97%
    15:00 +22°C° 3 mm 3 mps 717 mmHg 96%
    16:00 +22°C° 0.2 mm 3 mps 717 mmHg 96%
    17:00 +23°C° 0.2 mm 2 mps 717 mmHg 96%
    18:00 +23°C° 0.2 mm 2 mps 718 mmHg 96%
    19:00 +23°C° 0.1 mm 2 mps 718 mmHg 97%
    20:00 +22°C° 0.1 mm 1 mps 718 mmHg 97%
    21:00 +22°C° 0.1 mm 1 mps 718 mmHg 98%
    22:00 +22°C° 0 mm 1 mps 718 mmHg 98%
    23:00 +22°C° 0 mm 1 mps 718 mmHg 98%

    Day after tomorrow, 24 July, Wednesday

    Time Temperature Precipitation Wind Pressure Humidity
    00:00 +22°C° 0 mm 1 mps 718 mmHg 98%
    01:00 +22°C° 0 mm 1 mps 718 mmHg 97%
    02:00 +22°C° 0 mm 1 mps 718 mmHg 97%
    03:00 +22°C° 0 mm 1 mps 718 mmHg 97%
    04:00 +22°C° 0 mm 1 mps 718 mmHg 97%
    05:00 +22°C° 0 mm 1 mps 718 mmHg 96%
    06:00 +22°C° 0 mm 1 mps 718 mmHg 96%
    07:00 +23°C° 0 mm 2 mps 719 mmHg 93%
    08:00 +24°C° 0 mm 2 mps 719 mmHg 90%
    09:00 +25°C° 0 mm 3 mps 720 mmHg 87%
    10:00 +25°C° 0.1 mm 3 mps 719 mmHg 85%
    11:00 +26°C° 0.1 mm 3 mps 719 mmHg 84%
    12:00 +26°C° 0.1 mm 3 mps 719 mmHg 82%
    13:00 +26°C° 0.3 mm 3 mps 718 mmHg 83%
    14:00 +26°C° 0.3 mm 3 mps 718 mmHg 84%
    15:00 +26°C° 0.3 mm 3 mps 717 mmHg 85%
    16:00 +25°C° 0 mm 3 mps 717 mmHg 86%
    17:00 +25°C° 0 mm 2 mps 717 mmHg 87%
    18:00 +25°C° 0 mm 2 mps 717 mmHg 89%
    19:00 +24°C° 0 mm 1 mps 718 mmHg 91%
    20:00 +23°C° 0 mm 1 mps 718 mmHg 93%
    21:00 +23°C° 0 mm 1 mps 718 mmHg 95%
    22:00 +23°C° 0 mm 1 mps 718 mmHg 95%
    23:00 +22°C° 0 mm 1 mps 718 mmHg 95%

    25 July, Thursday

    Time Temperature Precipitation Wind Pressure Humidity
    00:00 +22°C° 0 mm 1 mps 718 mmHg 95%
    01:00 +22°C° 0 mm 1 mps 718 mmHg 96%
    02:00 +22°C° 0 mm 1 mps 718 mmHg 96%
    03:00 +22°C° 0 mm 1 mps 718 mmHg 96%
    04:00 +22°C° 0 mm 1 mps 718 mmHg 97%
    05:00 +22°C° 0 mm 1 mps 718 mmHg 97%
    06:00 +22°C° 0 mm 1 mps 718 mmHg 97%
    07:00 +23°C° 0 mm 2 mps 719 mmHg 91%
    08:00 +25°C° 0 mm 2 mps 719 mmHg 85%
    09:00 +27°C° 0 mm 3 mps 720 mmHg 79%
    10:00 +28°C° 0.1 mm 3 mps 719 mmHg 77%
    11:00 +28°C° 0.1 mm 3 mps 719 mmHg 75%
    12:00 +29°C° 0.1 mm 2 mps 718 mmHg 73%
    13:00 +29°C° 0.4 mm 2 mps 718 mmHg 72%
    14:00 +29°C° 0.4 mm 2 mps 717 mmHg 72%
    15:00 +29°C° 0.4 mm 2 mps 717 mmHg 71%
    16:00 +28°C° 1.3 mm 2 mps 716 mmHg 77%
    17:00 +27°C° 1.3 mm 2 mps 716 mmHg 84%
    18:00 +25°C° 1.3 mm 2 mps 716 mmHg 90%
    19:00 +25°C° 0 mm 1 mps 716 mmHg 91%
    20:00 +25°C° 0 mm 1 mps 717 mmHg 92%
    21:00 +25°C° 0 mm 1 mps 717 mmHg 92%
    22:00 +24°C° 0 mm 1 mps 717 mmHg 93%
    23:00 +24°C° 0 mm 1 mps 717 mmHg 95%

    26 July, Friday

    Time Temperature Precipitation Wind Pressure Humidity
    00:00 +24°C° 0 mm 1 mps 717 mmHg 96%
    01:00 +24°C° 0.1 mm 1 mps 717 mmHg 96%
    02:00 +24°C° 0.1 mm 1 mps 717 mmHg 96%
    03:00 +24°C° 0.1 mm 1 mps 717 mmHg 96%
    04:00 +23°C° 0.2 mm 1 mps 717 mmHg 97%
    05:00 +23°C° 0.2 mm 2 mps 717 mmHg 97%
    06:00 +23°C° 0.2 mm 2 mps 718 mmHg 98%
    07:00 +24°C° 0 mm 2 mps 718 mmHg 94%
    08:00 +25°C° 0 mm 3 mps 719 mmHg 91%
    09:00 +25°C° 0 mm 4 mps 720 mmHg 88%
    10:00 +26°C° 0.1 mm 3 mps 719 mmHg 84%
    11:00 +27°C° 0.1 mm 3 mps 719 mmHg 81%
    12:00 +28°C° 0.1 mm 3 mps 719 mmHg 77%
    13:00 +28°C° 0.8 mm 3 mps 718 mmHg 77%
    14:00 +29°C° 0.8 mm 2 mps 717 mmHg 76%
    15:00 +29°C° 0.8 mm 2 mps 717 mmHg 75%
    16:00 +28°C° 0.5 mm 2 mps 717 mmHg 80%
    17:00 +27°C° 0.5 mm 2 mps 717 mmHg 84%
    18:00 +26°C° 0.5 mm 2 mps 717 mmHg 89%
    19:00 +25°C° 0 mm 2 mps 717 mmHg 91%
    20:00 +25°C° 0 mm 2 mps 717 mmHg 94%
    21:00 +24°C° 0 mm 2 mps 718 mmHg 96%
    22:00 +24°C° 0 mm 2 mps 718 mmHg 96%
    23:00 +23°C° 0 mm 2 mps 718 mmHg 96%

    27 July, Saturday

    Time Temperature Precipitation Wind Pressure Humidity
    00:00 +23°C° 0 mm 2 mps 718 mmHg 96%
    01:00 +23°C° 0 mm 2 mps 718 mmHg 97%
    02:00 +23°C° 0 mm 2 mps 718 mmHg 97%
    03:00 +21°C° 0 mm 2 mps 718 mmHg 98%
    04:00 +21°C° 0 mm 2 mps 718 mmHg 98%
    05:00 +21°C° 0 mm 2 mps 718 mmHg 98%
    06:00 +21°C° 0 mm 2 mps 718 mmHg 98%
    07:00 +24°C° 0 mm 3 mps 719 mmHg 92%
    08:00 +25°C° 0 mm 3 mps 720 mmHg 85%
    09:00 +27°C° 0 mm 3 mps 720 mmHg 79%
    10:00 +28°C° 0 mm 3 mps 720 mmHg 76%
    11:00 +29°C° 0 mm 3 mps 719 mmHg 73%
    12:00 +29°C° 0 mm 3 mps 719 mmHg 70%
    13:00 +29°C° 1.4 mm 3 mps 718 mmHg 73%
    14:00 +29°C° 1.4 mm 2 mps 717 mmHg 76%
    15:00 +28°C° 1.4 mm 2 mps 717 mmHg 79%
    16:00 +27°C° 0.1 mm 2 mps 716 mmHg 82%
    17:00 +27°C° 0.1 mm 2 mps 716 mmHg 86%
    18:00 +26°C° 0.1 mm 2 mps 716 mmHg 89%
    19:00 +25°C° 0 mm 2 mps 717 mmHg 91%
    20:00 +25°C° 0 mm 2 mps 717 mmHg 94%
    21:00 +24°C° 0 mm 1 mps 717 mmHg 96%
    22:00 +24°C° 0 mm 2 mps 718 mmHg 96%
    23:00 +24°C° 0 mm 2 mps 718 mmHg 95%
    Show more